Location: Newark
(47.5989°N, 4.6950°E)
Time: 12:38:02
(UTC+00:00)

Envisat - Pass Details

Date: 23 November 2019
Orbit: 764 x 766 km, 98.1° (Epoch: 15 December)

Event Time Altitude Azimuth Distance (km) Brightness Sun altitude
Rises 18:07:11 0° 183° (S) 3,220 6.4 -21.5°
Reaches altitude 10° 18:09:35 10° 190° (S) 2,298 5.6 -21.9°
Maximum altitude 18:14:25 44° 262° (W) 1,051 4.1 -22.7°
Drops below altitude 10° 18:19:17 10° 334° (NNW) 2,314 5.7 -23.5°
Sets 18:21:43 0° 341° (NNW) 3,244 6.4 -23.9°
